Regional Weather Roundup
Issued by NWS

Home | Current Version | Previous Version | Graphics & Text | Print | Product List | Glossary On
Versions: 1 2 3 4 5 6 7 8 9 10 11 12 13 14 15 16 17 18 19 20 21 22 23 24 25 26 27 28 29 30 31 32 33 34 35 36 37 38 39 40 41 42 43 44 45 46 47
000
ASUS45 KBOU 231307
RWRCO

WEATHER ROUNDUP FOR COLORADO
NATIONAL WEATHER SERVICE DENVER/BOULDER CO
700 AM MDT TUE SEP 23 2014

NOTE: "FAIR" INDICATES FEW OR NO CLOUDS BELOW 12000 FEET WITH NO
SIGNIFICANT WEATHER AND/OR OBSTRUCTIONS TO VISIBILITY.

COZ001>005-013-030-031-231400-
...NORTHWEST COLORADO...

CITY           SKY/WX    TMP DP  RH WIND       PRES   REMARKS
CRAIG          CLOUDY    52  49  89 S3        30.25R
HAYDEN         CLOUDY    52  46  82 E5        30.26R
MEEKER         MOCLDY    50  47  89 CALM      30.27R
MOUNT WERNER   NOT AVBL
STEAMBOAT SPGS CLOUDY    49  48  95 SE5       30.26S
WALDEN         CLOUDY    50  45  81 E7        30.31R
$$

COZ006>008-011-231400-
...WEST CENTRAL VALLEYS...

CITY           SKY/WX    TMP DP  RH WIND       PRES   REMARKS
GRAND JUNCTION PTCLDY    59  51  75 S6        30.18S
MONTROSE       CLOUDY    53  48  83 E7        30.29R
EAGLE          MOCLDY    52  50  93 CALM      30.31S
RIFLE          PTCLDY    54  50  86 CALM      30.24R
DELTA          RAIN      59  56  92 E6        30.24R
NUCLA          PTCLDY    50  43  76 E7        30.31R
$$

COZ017>023-064>068-231400-
...SOUTHWEST COLORADO...

CITY           SKY/WX    TMP DP  RH WIND       PRES   REMARKS
DURANGO        CLEAR     46  42  86 CALM      30.32R
CORTEZ         CLEAR     43  41  93 E3        30.27R
PAGOSA SPRINGS MOCLDY    46  45  95 CALM      30.38S
TELLURIDE      NOT AVBL
WOLF CREEK PAS NOT AVBL
$$

COZ009-010-012-014-032>034-037-058>063-231400-
...CENTRAL COLORADO...

CITY           SKY/WX    TMP DP  RH WIND       PRES   REMARKS
ASPEN          PTCLDY    47  42  83 SW6       30.34S
BUENA VISTA    CLEAR     40  38  92 CALM      30.33S
COPPER MTN     CLOUDY    43  36  75 W25       30.54S
BERTHOUD PASS  CLOUDY    32  32 100 NW32G43   30.51S WCI  17
COTTONWOOD PAS CLEAR     50  37  62 N5        30.42S
GUNNISON       MOCLDY    46  43  87 CALM      30.38F
KREMMLING      CLOUDY    50  45  81 N3        30.32S
LEADVILLE      CLOUDY    48  38  68 NW9       30.43R
MONARCH PASS   FOG       37  37 100 W31       30.63R VSB 1/4
SALIDA         CLEAR     52  43  72 N3        30.37S
SUNLIGHT       MOCLDY    43  43 100 CALM      30.51R
WILKERSON PASS NOT AVBL
$$

COZ069>075-231400-
...SAN LUIS VALLEY/SANGRE DE CRISTO MOUNTAINS...

CITY           SKY/WX    TMP DP  RH WIND       PRES   REMARKS
ALAMOSA        PTCLDY    36  34  92 NE8       30.34R FOG
LA VETA PASS   CLOUDY    45  43  93 SW5       30.46S
SAGUACHE       PTCLDY    43  41  93 NW3       30.37R
$$

COZ035-036-038>040-231400-
...NORTHERN COLORADO FRONT RANGE...

CITY           SKY/WX    TMP DP  RH WIND       PRES   REMARKS
DENVER INTL AP MOCLDY    59  48  67 SW10      30.13R
DMNS CITY PARK   N/A     58  49  72 W2G10     30.13R
AURORA         MOCLDY    56  49  77 S7        30.15S
FRONT RANGE AP MOCLDY    59  50  72 SW8       30.15R
ERIE MUNI ARPT NOT AVBL
BOULDER MUN AP CLOUDY    59  50  72 CALM      30.13R
CENTENNIAL     MOCLDY    57  49  74 S6        30.16S
BROOMFIELD     MOCLDY    61  48  63 CALM      30.14F
FORT COLLINS   MOCLDY    54  46  76 NW3       30.13R
LONGMONT       MOCLDY    58  50  74 S5        30.13S
$$

COZ041-046-047-076>085-087-088-231400-
...PIKES PEAK/PALMER DIVIDE AND SOUTHERN FOOTHILLS...

CITY           SKY/WX    TMP DP  RH WIND       PRES   REMARKS
COLO. SPRINGS  PTCLDY    51  42  71 N5        30.20S
A. F. ACADEMY  PTCLDY    45  41  86 N3        30.21S
ELLICOTT       NOT AVBL
FALCON         CLEAR     49  42  76 W8        30.24R
FORT CARSON    CLEAR     50  42  74 W6        30.17S
LIMON          CLEAR     47  46  97 NW6       30.15R
MONUMENT HILL  PTCLDY    46  41  81 S7        30.23R
TRINIDAD       CLEAR     58  51  78 W17       30.18S
$$

COZ042>045-048>051-090-091-231400-
...NORTHEAST COLORADO...

CITY           SKY/WX    TMP DP  RH WIND       PRES   REMARKS
GREELEY ARPT   MOCLDY    55  45  67 N7        30.12R
AKRON          MOCLDY    57  55  93 W9        30.08S
BURLINGTON     PTCLDY    54  52  93 CALM      30.09R
WRAY           CLOUDY   N/A N/A N/A SW6       30.04S
STERLING       MOCLDY    55  55 100 S3        30.05R
HOLYOKE        CLOUDY    59  55  88 SW5       30.03S
FORT MORGAN    MOCLDY    54  52  92 SW3       30.09F
$$

COZ086-089-092>099-231400-
...SOUTHEAST COLORADO...

CITY           SKY/WX    TMP DP  RH WIND       PRES   REMARKS
PUEBLO         CLEAR     51  48  89 W5        30.12S
LA JUNTA       PTCLDY    57  55  93 SW7       30.09R
LAMAR          CLEAR     53  53 100 W3        30.04S
SPRINGFIELD      N/A     60  57  89 SW10      30.10S
$$


USA.gov is the U.S. government's official web portal to all federal, state and local government web resources and services.